Location: Chervonnoye
(48.6000°N, 34.4000°E)
Time: 16:28:19
(UTC+00:00)

SL-16 R/B - Pass Details

Date: 23 November 2020
Orbit: 841 x 849 km, 71.0° (Epoch: 27 January)

Event Time Altitude Azimuth Distance (km) Brightness Sun altitude
Rises 15:18:37 0° 168° (SSE) 3,385 5.4 -13.6°
Reaches altitude 10° 15:21:26 10° 156° (SSE) 2,454 4.5 -14.0°
Maximum altitude 15:25:56 25° 103° (ESE) 1,636 3.2 -14.8°
Enters shadow 15:27:24 22° 79° (E) 1,746 3.2 -15.0°
